Powrót do katalogu

STARLINK-37125

AktywnyŁącznośćVLEO
NORAD 68276·PAYLOAD·🇺🇸 United States

Wystrzelony Mar 19, 2026 z Vandenberg Space Force Base

Loading…

Następne Przeloty (najbliższe 24 godziny)

TLE

ŚwieżeSource: CelesTrak SupGP

Epoka: Sep 14, 2026, 22:31 UTC

1 68276C 26055Q   26257.93868056 -.00065627  00000+0 -19385-2 0  2576
2 68276  53.1579 155.9161 0001307  91.8919  10.7883 15.34431450    15

Śledź STARLINK-37125 w czasie rzeczywistym z AllMySat

Download on the App Store